Date,TemperatureHighF,TemperatureAvgF,TemperatureLowF,DewpointHighF,DewpointAvgF,DewpointLowF,HumidityHigh,HumidityAvg,HumidityLow,PressureMaxIn,PressureMinIn,WindSpeedMaxMPH,WindSpeedAvgMPH,GustSpeedMaxMPH,PrecipitationSumIn
2014-2-1,59,41,23,42,28,20,94,66,24,30.09,29.99,3,0,0,0.00
2014-2-2,68,49,35,52,45,35,99,89,58,30.04,29.82,3,0,0,0.00
2014-2-3,77,60,46,62,55,43,99,86,47,30.04,29.73,4,1,0,0.35
2014-2-4,50,43,39,42,39,38,99,87,74,30.19,29.96,7,2,0,0.01
2014-2-5,69,46,35,53,40,30,99,81,48,29.99,29.73,5,1,0,0.32
2014-2-6,50,38,28,35,29,25,99,73,40,30.20,30.00,4,0,0,0.00
2014-2-7,62,42,28,35,33,28,99,74,35,30.21,30.08,4,1,0,0.00
2014-2-8,67,45,36,39,35,32,98,72,29,30.13,29.94,4,0,0,0.00
2014-2-9,68,46,32,42,37,32,99,75,38,30.02,29.85,4,1,0,0.00
2014-2-10,45,40,34,43,38,33,99,94,81,30.07,29.91,6,1,0,0.03
2014-2-11,39,34,32,37,33,31,99,96,90,30.20,30.06,4,2,0,0.14
2014-2-12,32,28,26,32,27,24,99,95,88,30.21,29.67,10,4,0,0.01
2014-2-13,54,38,29,38,33,29,99,82,50,29.66,29.48,8,1,0,0.52
2014-2-14,61,42,30,39,33,28,97,71,38,29.73,29.55,4,0,0,0.01
2014-2-15,59,43,36,40,28,15,99,62,20,29.94,29.47,9,2,0,0.09
2014-2-16,67,46,32,34,28,20,80,51,28,30.00,29.87,5,1,0,0.00
2014-2-17,58,44,29,42,32,28,99,68,38,30.19,30.00,8,1,0,0.00
2014-2-18,74,51,30,52,37,30,99,68,24,30.10,29.91,4,0,0,0.00
2014-2-19,82,65,56,60,57,53,99,78,45,29.94,29.83,7,1,0,0.01
2014-2-20,77,62,54,60,56,53,99,82,56,29.99,29.77,3,0,0,0.00
2014-2-21,72,59,42,60,41,12,99,62,13,29.92,29.69,6,2,0,0.90
2014-2-22,72,48,33,36,30,23,97,58,16,30.08,29.92,3,1,0,0.00
2014-2-23,77,52,32,40,35,31,98,61,22,29.98,29.79,5,0,0,0.00
2014-2-24,78,54,36,42,33,19,98,55,15,29.97,29.79,8,1,0,0.00
2014-2-25,76,51,33,43,36,30,92,60,25,29.95,29.75,4,1,0,0.00
2014-2-26,61,47,33,37,28,22,90,52,25,29.79,29.62,6,1,0,0.00
2014-2-27,65,42,26,30,19,10,95,50,12,29.83,29.67,4,1,0,0.00
2014-2-28,59,41,26,24,17,11,76,40,19,30.12,29.83,7,2,0,0.00